DD3UTS-13 Weather Reports


time (UTC)temp
C
wind
direction
speed
KPH
gust
KPH
rain 1hr
cm
rain 24hr
cm
rain mn
cm
humidity
%
barometer
mb
20260507074531 9 0 6.4 0.0 0.00 0.48 0.00 90 1009.3
20260507074032 9 5 4.8 0.0 0.00 0.43 0.00 90 1009.2
20260507073531 9 20 4.8 0.0 0.00 0.43 0.00 90 1009.2
20260507073031 9 12 6.4 0.0 0.00 0.43 0.00 89 1009.2
20260507072532 9 12 0.0 0.0 0.00 0.43 0.00 89 1009.1
20260507072031 9 25 0.0 0.0 0.00 0.43 0.00 89 1009.1
20260507071531 9 350 4.8 0.0 0.00 0.43 0.00 89 1009.0
20260507071032 9 5 6.4 0.0 0.00 0.43 0.00 89 1008.9
20260507070532 10 357 3.2 0.0 0.00 0.41 0.00 89 1008.9
20260507070031 9 20 0.0 0.0 0.00 0.41 0.00 89 1008.9
20260507065532 9 355 0.0 0.0 0.00 0.41 0.00 89 1008.9
20260507065031 9 355 4.8 0.0 0.00 0.41 0.00 89 1008.9
20260507064532 10 357 4.8 0.0 0.00 0.41 0.00 89 1008.8
20260507064032 10 15 0.0 0.0 0.00 0.41 0.00 89 1008.7
20260507063532 10 352 0.0 0.0 0.00 0.38 0.00 89 1008.7
20260507063031 10 352 0.0 0.0 0.00 0.38 0.00 89 1008.6
20260507062531 9 8 4.8 0.0 0.00 0.38 0.00 89 1008.6
20260507062032 9 10 4.8 0.0 0.00 0.38 0.00 89 1008.5
20260507061531 10 0 0.0 0.0 0.00 0.38 0.00 89 1008.5
20260507061032 10 0 0.0 0.0 0.00 0.36 0.00 89 1008.4
20260507060532 10 12 0.0 0.0 0.00 0.33 0.00 89 1008.4
20260507060032 10 12 0.0 0.0 0.00 0.33 0.00 89 1008.4
20260507055532 10 12 0.0 0.0 0.00 0.28 0.00 89 1008.4
20260507055031 10 12 0.0 0.0 0.00 0.28 0.00 89 1008.3
20260507054531 10 12 0.0 0.0 0.00 0.25 0.00 89 1008.3
20260507054031 10 8 0.0 0.0 0.00 0.23 0.00 89 1008.2
20260507053531 10 5 0.0 0.0 0.00 0.23 0.00 89 1008.2
20260507053032 9 3 0.0 0.0 0.00 0.20 0.00 89 1008.1
20260507052532 9 3 0.0 0.0 0.00 0.18 0.00 89 1008.1
20260507052033 9 3 0.0 0.0 0.00 0.15 0.00 89 1008.0
20260507051532 9 3 0.0 0.0 0.00 0.10 0.00 89 1008.0
20260507051031 9 3 3.2 0.0 0.00 0.08 0.00 89 1007.9
20260507050531 9 10 0.0 0.0 0.00 0.05 0.00 89 1007.9
20260507050031 9 12 4.8 0.0 0.00 0.53 0.00 89 1007.9
20260507045531 9 17 0.0 0.0 0.00 0.53 0.00 89 1007.8
20260507045031 9 17 0.0 0.0 0.00 0.46 0.00 89 1007.8
20260507044532 9 17 0.0 0.0 0.00 0.46 0.00 89 1007.8
20260507044032 9 17 0.0 0.0 0.00 0.43 0.00 89 1007.6
20260507043531 10 25 4.8 0.0 0.00 0.38 0.00 89 1007.6
20260507043031 9 352 4.8 0.0 0.00 0.38 0.00 89 1007.6
20260507042531 10 17 0.0 0.0 0.00 0.38 0.00 89 1007.5
20260507042032 10 0 0.0 0.0 0.00 0.38 0.00 89 1007.5
20260507041531 10 357 6.4 0.0 0.00 0.38 0.00 89 1007.4
20260507041031 10 12 0.0 0.0 0.00 0.38 0.00 89 1007.3
20260507040531 10 355 0.0 0.0 0.00 0.38 0.00 89 1007.3
20260507040032 10 15 4.8 0.0 0.00 0.38 0.00 89 1007.3
20260507035531 10 12 4.8 0.0 0.00 0.38 0.00 89 1007.3
20260507035031 10 35 0.0 0.0 0.00 0.36 0.00 89 1007.2
20260507034532 10 0 6.4 0.0 0.00 0.36 0.00 89 1007.2
20260507034031 10 10 6.4 0.0 0.00 0.36 0.00 89 1007.2
20260507033532 10 352 4.8 0.0 0.00 0.36 0.00 89 1007.2
20260507033031 10 5 6.4 0.0 0.00 0.36 0.00 89 1007.2
20260507032532 10 347 0.0 0.0 0.00 0.36 0.00 89 1007.2
20260507032032 10 3 0.0 0.0 0.00 0.33 0.00 89 1007.1
20260507031531 10 8 0.0 0.0 0.00 0.33 0.00 89 1007.1
20260507031032 10 5 0.0 0.0 0.00 0.33 0.00 89 1007.1
20260507030532 10 8 0.0 0.0 0.00 0.30 0.00 89 1007.1
20260507030032 10 8 0.0 0.0 0.00 0.28 0.00 88 1007.1
20260507025531 10 8 0.0 0.0 0.00 0.28 0.00 88 1007.1
20260507025032 10 8 0.0 0.0 0.00 0.23 0.00 88 1007.1
20260507024532 10 355 0.0 0.0 0.00 0.23 0.00 88 1007.0
20260507024031 10 347 0.0 0.0 0.00 0.23 0.00 88 1007.0
20260507023531 10 315 4.8 0.0 0.00 0.23 0.00 88 1007.0
20260507023031 10 310 4.8 0.0 0.00 0.23 0.00 88 1007.1
20260507022532 10 307 6.4 0.0 0.00 0.23 0.00 88 1007.1
20260507022031 10 355 0.0 0.0 0.00 0.23 0.00 88 1007.1
20260507021531 10 342 0.0 0.0 0.00 0.23 0.00 88 1007.1
20260507021031 10 330 4.8 0.0 0.00 0.23 0.00 88 1007.0
20260507020532 10 292 4.8 0.0 0.00 0.23 0.00 88 1007.0
20260507020031 10 320 6.4 0.0 0.00 0.23 0.00 88 1007.0
20260507015532 10 320 0.0 0.0 0.00 0.23 0.00 88 1007.0
20260507015032 10 355 6.4 0.0 0.00 0.23 0.00 88 1006.9
20260507014531 10 320 0.0 0.0 0.00 0.23 0.00 88 1006.9
20260507014032 10 10 0.0 0.0 0.00 0.23 0.00 88 1006.9
20260507013531 10 17 0.0 0.0 0.00 0.23 0.00 88 1006.9
20260507013031 10 15 0.0 0.0 0.00 0.23 0.00 88 1006.8
20260507012531 10 10 4.8 0.0 0.00 0.23 0.00 88 1006.7
20260507012031 10 355 4.8 0.0 0.00 0.23 0.00 88 1006.6
20260507011532 10 57 6.4 0.0 0.00 0.23 0.00 88 1006.5
20260507011031 10 120 8.0 0.0 0.00 0.23 0.00 88 1006.4
20260507010532 10 130 8.0 0.0 0.00 0.23 0.00 88 1006.4
20260507010032 10 135 8.0 0.0 0.00 0.23 0.00 88 1006.3
20260507005531 10 137 8.0 0.0 0.00 0.23 0.00 87 1006.3
20260507005032 10 147 6.4 0.0 0.00 0.23 0.00 87 1006.3
20260507004532 10 195 6.4 0.0 0.00 0.23 0.00 87 1006.3
20260507004032 10 202 8.0 0.0 0.00 0.23 0.00 87 1006.3
20260507003531 10 140 6.4 0.0 0.00 0.23 0.00 87 1006.3
20260507003032 10 165 6.4 0.0 0.00 0.23 0.00 87 1006.3
20260507002532 10 145 6.4 0.0 0.00 0.23 0.00 87 1006.3
20260507002031 10 122 4.8 0.0 0.00 0.23 0.00 87 1006.2
20260507001532 10 110 0.0 0.0 0.00 0.23 0.00 87 1006.2
20260507001032 10 82 4.8 0.0 0.00 0.23 0.00 87 1006.3
20260507000532 10 100 0.0 0.0 0.00 0.23 0.00 87 1006.3
20260507000032 10 100 0.0 0.0 0.00 0.23 0.00 87 1006.3
20260506235532 10 50 0.0 0.0 0.00 0.23 0.00 87 1006.4
20260506235031 10 52 0.0 0.0 0.00 0.23 0.00 87 1006.4
20260506234531 10 15 0.0 0.0 0.00 0.23 0.00 87 1006.4
20260506234032 10 10 6.4 0.0 0.00 0.23 0.00 87 1006.3
20260506233531 10 20 0.0 0.0 0.00 0.20 0.00 86 1006.3
20260506233031 10 20 0.0 0.0 0.00 0.20 0.00 86 1006.2
20260506232531 11 20 0.0 0.0 0.00 0.20 0.00 86 1006.2
20260506232032 11 60 0.0 0.0 0.00 0.18 0.00 86 1006.2
20260506231532 11 3 0.0 0.0 0.00 0.18 0.00 86 1006.1
20260506231031 11 0 6.4 0.0 0.00 0.18 0.00 86 1006.1
20260506230531 11 0 6.4 0.0 0.00 0.15 0.00 86 1006.1
20260506230032 11 350 6.4 0.0 0.00 0.05 0.00 85 1006.2
20260506225532 11 22 6.4 0.0 0.00 0.03 0.00 85 1006.2
20260506225032 11 15 8.0 0.0 0.00 0.03 0.00 85 1006.3
20260506224532 11 310 6.4 0.0 0.00 0.03 0.00 85 1006.4
20260506224031 11 345 4.8 0.0 0.00 0.00 0.00 85 1006.3
20260506223531 11 10 6.4 0.0 0.00 0.00 0.00 85 1006.3
20260506223032 11 355 6.4 0.0 0.00 0.00 0.00 84 1006.4
20260506222531 11 305 9.7 0.0 0.00 0.00 0.00 84 1006.6
20260506222031 11 340 12.9 0.0 0.00 0.00 0.00 84 1006.6
20260506221532 11 300 33.8 0.0 0.00 0.00 0.00 83 1006.5
20260506221032 11 300 33.8 0.0 0.00 0.00 0.00 83 1006.5
20260506220532 12 302 12.9 0.0 0.00 0.00 0.00 83 1006.5
20260506220032 12 357 4.8 0.0 0.00 0.00 0.00 83 1006.2
20260506215532 12 0 4.8 0.0 0.00 0.00 0.00 83 1006.0
20260506215031 12 10 0.0 0.0 0.00 0.00 0.00 83 1005.9
20260506214532 12 357 0.0 0.0 0.00 0.00 0.00 83 1005.9
20260506214032 12 347 0.0 0.0 0.00 0.00 0.00 83 1005.9
20260506213532 12 347 0.0 0.0 0.00 0.00 0.00 83 1005.9
20260506213031 12 347 0.0 0.0 0.00 0.00 0.00 83 1005.9
20260506212531 12 347 3.2 0.0 0.00 0.00 0.00 83 1005.9
20260506212031 12 350 4.8 0.0 0.00 0.00 0.00 82 1005.8
20260506211531 12 22 0.0 0.0 0.00 0.00 0.00 82 1005.6
20260506211032 12 22 0.0 0.0 0.00 0.00 0.00 82 1005.6
20260506210531 12 22 0.0 0.0 0.00 0.00 0.00 82 1005.6
20260506210032 12 22 0.0 0.0 0.00 0.00 0.00 82 1005.7
20260506205532 12 22 0.0 0.0 0.00 0.00 0.00 82 1005.8
20260506205032 12 22 0.0 0.0 0.00 0.00 0.00 82 1005.7
20260506204531 12 10 0.0 0.0 0.00 0.00 0.00 82 1005.6
20260506204031 12 10 0.0 0.0 0.00 0.00 0.00 81 1005.5
20260506203531 12 20 0.0 0.0 0.00 0.00 0.00 81 1005.4
20260506203031 12 20 0.0 0.0 0.00 0.00 0.00 81 1005.5
20260506202532 12 10 4.8 0.0 0.00 0.00 0.00 81 1005.5
20260506202032 13 350 4.8 0.0 0.00 0.00 0.00 81 1005.5
20260506201532 13 0 0.0 0.0 0.00 0.00 0.00 80 1005.5
20260506201033 13 357 0.0 0.0 0.00 0.00 0.00 80 1005.5
20260506200531 13 357 0.0 0.0 0.00 0.00 0.00 80 1005.5
20260506200032 13 355 4.8 0.0 0.00 0.00 0.00 80 1005.5
20260506195532 13 355 0.0 0.0 0.00 0.00 0.00 79 1005.5
20260506195032 13 8 4.8 0.0 0.00 0.00 0.00 79 1005.6
20260506194532 13 355 3.2 0.0 0.00 0.00 0.00 79 1005.5
20260506194033 13 10 0.0 0.0 0.00 0.00 0.00 78 1005.4
20260506193532 13 10 0.0 0.0 0.00 0.00 0.00 78 1005.4
20260506193032 13 40 0.0 0.0 0.00 0.00 0.00 77 1005.4
20260506192532 13 40 0.0 0.0 0.00 0.00 0.00 77 1005.3
20260506192032 14 355 4.8 0.0 0.00 0.00 0.00 77 1005.2
20260506191532 14 50 4.8 0.0 0.00 0.00 0.00 76 1005.2
20260506191032 14 75 0.0 0.0 0.00 0.00 0.00 75 1005.1
20260506190532 14 15 0.0 0.0 0.00 0.00 0.00 75 1005.0
20260506190032 14 15 0.0 0.0 0.00 0.00 0.00 75 1004.9
20260506185532 14 27 0.0 0.0 0.00 0.00 0.00 74 1004.8
20260506185032 14 37 0.0 0.0 0.00 0.00 0.00 74 1004.8
20260506184532 15 105 0.0 0.0 0.00 0.00 0.00 73 1004.8
20260506184031 15 100 0.0 0.0 0.00 0.00 0.00 72 1004.8
20260506183532 15 45 0.0 0.0 0.00 0.00 0.00 71 1004.8
20260506183032 15 45 0.0 0.0 0.00 0.00 0.00 71 1004.8
20260506182531 15 3 6.4 0.0 0.00 0.00 0.00 70 1004.7
20260506182032 16 35 3.2 0.0 0.00 0.00 0.00 69 1004.7
20260506181531 16 62 4.8 0.0 0.00 0.00 0.00 68 1004.7
20260506181032 16 342 6.4 0.0 0.00 0.00 0.00 67 1004.6
20260506180532 16 332 6.4 0.0 0.00 0.00 0.00 66 1004.5
20260506180031 17 350 0.0 0.0 0.00 0.00 0.00 64 1004.5
20260506175531 17 8 0.0 0.0 0.00 0.00 0.00 63 1004.5
20260506175033 18 350 0.0 0.0 0.00 0.00 0.00 61 1004.6
20260506174532 18 357 0.0 0.0 0.00 0.00 0.00 60 1004.6
20260506174031 18 10 0.0 0.0 0.00 0.00 0.00 59 1004.6
20260506173532 18 22 0.0 0.0 0.00 0.00 0.00 59 1004.5
20260506173031 18 22 0.0 0.0 0.00 0.00 0.00 58 1004.5
20260506172532 18 25 0.0 0.0 0.00 0.00 0.00 58 1004.5
20260506172032 18 337 0.0 0.0 0.00 0.00 0.00 58 1004.4
20260506171531 18 352 0.0 0.0 0.00 0.00 0.00 57 1004.4
20260506171032 18 352 0.0 0.0 0.00 0.00 0.00 57 1004.4
20260506170531 18 352 0.0 0.0 0.00 0.00 0.00 57 1004.2
20260506170031 19 350 0.0 0.0 0.00 0.00 0.00 56 1004.2
20260506165531 19 340 3.2 0.0 0.00 0.00 0.00 55 1004.2
20260506165032 20 345 3.2 0.0 0.00 0.00 0.00 53 1004.2
20260506164532 20 340 9.7 0.0 0.00 0.00 0.00 52 1004.2
20260506164032 21 317 8.0 0.0 0.00 0.00 0.00 52 1004.4
20260506163531 21 357 3.2 0.0 0.00 0.00 0.00 51 1004.7
20260506163031 21 327 4.8 0.0 0.00 0.00 0.00 51 1004.7
20260506162531 21 5 6.4 0.0 0.00 0.00 0.00 51 1004.7
20260506161531 21 347 6.4 0.0 0.00 0.00 0.00 53 1004.8
20260506161032 21 345 6.4 0.0 0.00 0.00 0.00 53 1004.8
20260506160532 20 330 6.4 0.0 0.00 0.00 0.00 55 1004.9
20260506160032 20 282 8.0 0.0 0.00 0.00 0.00 54 1004.9
20260506155532 20 290 11.3 0.0 0.00 0.00 0.00 55 1005.0
20260506155032 20 12 8.0 0.0 0.00 0.00 0.00 55 1005.0
20260506154531 20 352 3.2 0.0 0.00 0.00 0.00 56 1005.0
20260506154032 19 325 6.4 0.0 0.00 0.00 0.00 58 1004.9
20260506153531 19 335 9.7 0.0 0.00 0.00 0.00 59 1004.9
20260506153033 20 337 4.8 0.0 0.00 0.00 0.00 59 1004.8
20260506152532 19 342 8.0 0.0 0.00 0.00 0.00 60 1005.1
20260506152031 19 335 4.8 0.0 0.00 0.00 0.00 59 1005.0
20260506151531 19 5 6.4 0.0 0.00 0.00 0.00 59 1005.0
20260506151032 18 0 4.8 0.0 0.00 0.00 0.00 60 1005.1
20260506150531 18 352 4.8 0.0 0.00 0.00 0.00 60 1004.9
20260506150031 18 332 6.4 0.0 0.00 0.00 0.00 58 1004.9
20260506145531 18 5 4.8 0.0 0.00 0.00 0.00 59 1004.8
20260506145032 18 5 9.7 0.0 0.00 0.00 0.00 57 1004.8
20260506144532 18 282 12.9 0.0 0.00 0.00 0.00 53 1004.8
20260506144031 18 237 14.5 0.0 0.00 0.00 0.00 53 1004.8
20260506143532 18 235 11.3 0.0 0.00 0.00 0.00 54 1004.8
20260506143031 18 260 16.1 0.0 0.00 0.00 0.00 51 1004.8
20260506142532 19 207 17.7 0.0 0.00 0.00 0.00 52 1004.8
20260506142032 19 200 20.9 0.0 0.00 0.00 0.00 51 1004.8
20260506141532 19 232 19.3 0.0 0.00 0.00 0.00 53 1004.9
20260506141032 20 265 20.9 0.0 0.00 0.00 0.00 52 1004.9
20260506140531 19 227 16.1 0.0 0.00 0.00 0.00 54 1005.1
20260506140031 19 207 17.7 0.0 0.00 0.00 0.00 54 1005.1
20260506135531 19 247 17.7 0.0 0.00 0.00 0.00 54 1005.3
20260506135031 18 232 16.1 0.0 0.00 0.00 0.00 53 1005.2
20260506134532 19 195 16.1 0.0 0.00 0.00 0.00 55 1005.0
20260506134032 19 177 17.7 0.0 0.00 0.00 0.00 54 1005.0
20260506133532 19 205 19.3 0.0 0.00 0.00 0.00 54 1005.0
20260506133031 19 220 19.3 0.0 0.00 0.00 0.00 54 1005.1
20260506132532 20 205 16.1 0.0 0.00 0.00 0.00 54 1005.2
20260506132031 19 232 12.9 0.0 0.00 0.00 0.00 56 1005.3
20260506131531 18 245 12.9 0.0 0.00 0.00 0.00 56 1005.1
20260506131032 18 235 17.7 0.0 0.00 0.00 0.00 56 1005.2
20260506130531 18 260 12.9 0.0 0.00 0.00 0.00 55 1005.3
20260506130031 18 260 12.9 0.0 0.00 0.00 0.00 56 1005.3
20260506125532 18 285 14.5 0.0 0.00 0.00 0.00 54 1005.2
20260506125032 18 257 16.1 0.0 0.00 0.00 0.00 56 1005.3
20260506124531 18 262 20.9 0.0 0.00 0.00 0.00 54 1005.4
20260506124032 18 242 16.1 0.0 0.00 0.00 0.00 58 1005.5
20260506123532 18 232 16.1 0.0 0.00 0.00 0.00 57 1005.4
20260506123032 18 235 20.9 0.0 0.00 0.00 0.00 56 1005.3
20260506122531 18 237 17.7 0.0 0.00 0.00 0.00 56 1005.4
20260506122032 18 220 24.1 0.0 0.00 0.00 0.00 56 1005.4
20260506121531 18 232 19.3 0.0 0.00 0.00 0.00 56 1005.5
20260506121031 18 230 22.5 0.0 0.00 0.00 0.00 55 1005.4
20260506120531 18 230 20.9 0.0 0.00 0.00 0.00 56 1005.4
20260506120031 18 225 22.5 0.0 0.00 0.00 0.00 55 1005.4
20260506115531 19 245 27.4 0.0 0.00 0.00 0.00 54 1005.4
20260506115031 19 240 24.1 0.0 0.00 0.00 0.00 55 1005.4
20260506114531 18 245 25.7 0.0 0.00 0.00 0.00 54 1005.3
20260506114031 19 245 25.7 0.0 0.00 0.00 0.00 54 1005.3
20260506113532 19 240 22.5 0.0 0.00 0.00 0.00 55 1005.4
20260506113032 18 240 22.5 0.0 0.00 0.00 0.00 56 1005.4
20260506112532 18 235 22.5 0.0 0.00 0.00 0.00 56 1005.4
20260506112032 18 245 24.1 0.0 0.00 0.00 0.00 57 1005.5
20260506111531 18 235 29.0 0.0 0.00 0.00 0.00 58 1005.4
20260506111031 18 222 24.1 0.0 0.00 0.00 0.00 59 1005.6
20260506110532 18 237 25.7 0.0 0.00 0.00 0.00 61 1005.6
20260506110031 18 237 25.7 0.0 0.00 0.00 0.00 61 1005.5
20260506105032 18 215 29.0 0.0 0.00 0.00 0.00 60 1005.5
20260506104531 18 242 24.1 0.0 0.00 0.00 0.00 61 1005.7
20260506104032 17 242 25.7 0.0 0.00 0.00 0.00 61 1005.5
20260506103532 17 250 30.6 0.0 0.00 0.00 0.00 60 1005.4
20260506103031 18 257 25.7 0.0 0.00 0.00 0.00 59 1005.6
20260506102532 18 255 32.2 0.0 0.00 0.00 0.00 60 1005.7
20260506102031 18 255 25.7 0.0 0.00 0.00 0.00 61 1005.6
20260506101531 18 260 19.3 0.0 0.00 0.00 0.00 61 1005.7
20260506101031 17 255 24.1 0.0 0.00 0.00 0.00 63 1005.5
20260506100531 17 255 19.3 0.0 0.00 0.00 0.00 63 1005.2
20260506100031 17 247 22.5 0.0 0.00 0.00 0.00 63 1005.2
20260506095531 17 257 29.0 0.0 0.00 0.00 0.00 62 1005.2
20260506095031 17 242 27.4 0.0 0.00 0.00 0.00 65 1005.2
20260506094532 17 240 25.7 0.0 0.00 0.00 0.00 64 1005.2
20260506094031 17 265 27.4 0.0 0.00 0.00 0.00 65 1005.1
20260506093531 17 250 25.7 0.0 0.00 0.00 0.00 66 1005.0
20260506093031 16 250 27.4 0.0 0.00 0.00 0.00 67 1005.1
20260506092532 16 252 25.7 0.0 0.00 0.00 0.00 65 1005.0
20260506092032 17 242 27.4 0.0 0.00 0.00 0.00 67 1005.0
20260506091531 16 230 24.1 0.0 0.00 0.00 0.00 67 1005.1
20260506091032 16 245 25.7 0.0 0.00 0.00 0.00 69 1005.1
20260506090532 15 240 25.7 0.0 0.00 0.00 0.00 68 1005.0
20260506090032 16 237 32.2 0.0 0.00 0.00 0.00 68 1005.1
20260506085531 16 237 27.4 0.0 0.00 0.00 0.00 68 1005.0
20260506085032 16 225 24.1 0.0 0.00 0.00 0.00 69 1004.9
20260506084531 16 245 25.7 0.0 0.00 0.00 0.00 69 1004.8
20260506084032 16 240 19.3 0.0 0.00 0.00 0.00 70 1004.7
20260506083532 15 235 30.6 0.0 0.00 0.00 0.00 69 1004.6
20260506083031 16 232 32.2 0.0 0.00 0.00 0.00 70 1004.7
20260506082532 16 255 29.0 0.0 0.00 0.00 0.00 70 1004.6
20260506082032 15 250 27.4 0.0 0.00 0.00 0.00 71 1004.5
20260506081531 15 250 25.7 0.0 0.00 0.00 0.00 70 1004.5
20260506081031 16 247 29.0 0.0 0.00 0.00 0.00 70 1004.4
20260506080531 16 252 20.9 0.0 0.00 0.00 0.00 71 1004.2